Location: Binningen
(47.7924°N, 8.7261°E)
Time: 17:26:24
(UTC+00:00)

Cosmos 1733 Rocket - Pass Details

Date: 29 September 2021
Orbit: 604 x 627 km, 82.5° (Epoch: 20 October)

Event Time Altitude Azimuth Distance (km) Brightness Sun altitude
Rises 18:26:20 0° 233° (SW) 2,850 7.1 -13.9°
Reaches altitude 10° 18:29:17 10° 255° (WSW) 1,953 6.6 -14.4°
Maximum altitude 18:32:00 16° 294° (WNW) 1,588 6.3 -14.8°
Drops below altitude 10° 18:34:46 10° 334° (NNW) 1,966 6.2 -15.3°
Sets 18:37:45 0° 356° (N) 2,879 6.7 -15.8°
